This is the latest recevied weather packets stored in our database for station/object AA0PB. If no packets are shown the sender has not sent any weather packets the latest 10 day(s).
| Time | Temp. | Humidity | Pressure | Rain* | Wind** | Luminosity | Snow |
|---|---|---|---|---|---|---|---|
| 1777996349 | 12.78° C | 91% | 1016.8 hPa | 0 mm | - | 93 W/m² | - |
| 1777996045 | 12.22° C | 91% | 1016.9 hPa | 0 mm | - | 87 W/m² | - |
| 1777995742 | 12.22° C | 92% | 1016.7 hPa | 0 mm | - | 72 W/m² | - |
| 1777995438 | 12.22° C | 93% | 1016.5 hPa | 0 mm | - | 73 W/m² | - |
| 1777995136 | 12.22° C | 93% | 1016.8 hPa | 0 mm | - | 83 W/m² | - |
| 1777994833 | 12.22° C | 95% | 1016.7 hPa | 0 mm | - | 78 W/m² | - |
| 1777994529 | 11.67° C | 95% | 1016.9 hPa | 0 mm | - | 66 W/m² | - |
| 1777994224 | 11.67° C | 95% | 1016.7 hPa | 0 mm | - | 50 W/m² | - |
| 1777993921 | 11.67° C | 95% | 1016.6 hPa | 0 mm | - | 47 W/m² | - |
| 1777993617 | 11.67° C | 95% | 1016.5 hPa | 0 mm | - | 46 W/m² | - |
| 1777993314 | 11.67° C | 95% | 1016.5 hPa | 0 mm | - | 51 W/m² | - |
| 1777993009 | 11.67° C | 95% | 1016.6 hPa | 0 mm | - | 48 W/m² | - |
| 1777992703 | 11.67° C | 95% | 1016.5 hPa | 0 mm | - | 40 W/m² | - |
| 1777992400 | 11.67° C | 95% | 1016.6 hPa | 0 mm | - | 37 W/m² | - |
| 1777992098 | 11.67° C | 95% | 1016.2 hPa | 0 mm | - | 32 W/m² | - |
| 1777991795 | 11.67° C | 94% | 1016.4 hPa | 0 mm | - | 26 W/m² | - |
| 1777991492 | 11.67° C | 94% | 1016.5 hPa | 0 mm | - | 24 W/m² | - |
| 1777991189 | 11.67° C | 93% | 1016.3 hPa | 0 mm | - | 24 W/m² | - |
| 1777990886 | 11.67° C | 93% | 1016.5 hPa | 0 mm | - | 20 W/m² | - |
| 1777990584 | 11.67° C | 93% | 1016.3 hPa | 0 mm | - | 20 W/m² | - |
| 1777989977 | 11.67° C | 93% | 1016.3 hPa | 0 mm | - | 20 W/m² | - |
| 1777989674 | 11.67° C | 93% | 1016.1 hPa | 0 mm | - | 16 W/m² | - |
| 1777989370 | 11.67° C | 93% | 1015.9 hPa | 0 mm | - | 14 W/m² | - |
| 1777989067 | 11.67° C | 93% | 1016.2 hPa | 0 mm | - | 12 W/m² | - |
| 1777988762 | 11.67° C | 93% | 1015.9 hPa | 0 mm | - | 11 W/m² | - |
* Rain latest hour (hover to see other rain measurements)
** Current wind speed in m/s (hover to see current wind gust speed)